Willimantic, CT

9:24 AM EST on December 13, 2019 (GMT -0500)
Windham

Weather History for KIJD - October, 2019

Change the Weather History Date:

Thursday, October 3, 2019

  Actual Average Record
Temperature  
Mean Temperature 52 °F -  
Max Temperature 55 °F 67 °F 84 °F (1968)
Min Temperature 48 °F 43 °F 27 °F (1957)
Degree Days  
Heating Degree Days 14    
Growing Degree Days 2 (Base 50)    
Moisture  
Dew Point 46 °F    
Average Humidity 82    
Maximum Humidity 97    
Minimum Humidity 64    
Precipitation  
Precipitation 0.10 in - - ()
Sea Level Pressure  
Sea Level Pressure 30.12 in    
Wind  
Wind Speed 7 mph ()    
Max Wind Speed 13 mph    
Max Gust Speed -    
Visibility 7.9 miles    
Events Rain    
Averages and records for this station are not official NWS values.
T = Trace of Precipitation, MM = Missing Value Source: Averaged Metar Reports

Daily Weather History Graph

Daily Weather History Graph

Search for Another Location

Airport or City:

Astronomy

Oct. 03, 2019 Rise Set
Actual Time 6:47 AM EDT 6:27 PM EDT
Civil Twilight 6:19 AM EDT 6:55 PM EDT
Nautical Twilight 5:47 AM EDT 7:27 PM EDT
Astronomical Twilight 5:14 AM EDT 7:59 PM EDT
Moon 12:19 PM EDT (10/3) 9:59 PM EDT (10/3)
Length of Visible Light 12h 35m
Length of Day
11h 39m
Waxing Crescent, 29% of the Moon is Illuminated
Oct 3
Waxing Crescent
Oct 5
First Quarter
Oct 13
Full
Oct 21
Last Quarter
Oct 27
New

Hourly Weather History & Observations

Time (EDT) Temp. Dew Point Humidity Pressure Visibility Wind Dir Wind Speed Gust Speed Precip Events Conditions
12:52 AM 55.0 °F 50.0 °F 83% 30.06 in 10.0 mi NE 12.7 mph - N/A   Overcast
1:30 AM 54.0 °F 48.9 °F 83% 30.08 in 10.0 mi NE 11.5 mph - N/A   Overcast
1:52 AM 53.1 °F 48.9 °F 86% 30.10 in 6.0 mi NE 12.7 mph - N/A   Overcast
2:41 AM 53.1 °F 48.9 °F 86% 30.09 in 10.0 mi NE 9.2 mph - 0.00 in   Overcast
2:52 AM 53.1 °F 48.0 °F 83% 30.09 in 10.0 mi NE 9.2 mph - 0.00 in   Overcast
3:07 AM 53.1 °F 48.9 °F 86% 30.10 in 10.0 mi NE 8.1 mph - N/A   Overcast
3:52 AM 51.1 °F 48.0 °F 89% 30.12 in 8.0 mi NE 9.2 mph - 0.00 in   Overcast
4:08 AM 51.1 °F 46.9 °F 86% 30.12 in 10.0 mi ENE 9.2 mph - N/A   Overcast
4:52 AM 51.1 °F 46.0 °F 83% 30.13 in 10.0 mi NNE 9.2 mph - N/A   Overcast
5:52 AM 51.1 °F 43.0 °F 74% 30.13 in 10.0 mi NE 9.2 mph - N/A   Overcast
6:52 AM 50.0 °F 43.0 °F 77% 30.17 in 10.0 mi NNE 9.2 mph - N/A   Overcast
7:52 AM 50.0 °F 42.1 °F 74% 30.20 in 10.0 mi NE 8.1 mph - N/A   Scattered Clouds
8:52 AM 51.1 °F 41.0 °F 68% 30.20 in 10.0 mi NE 10.4 mph - N/A   Overcast
9:52 AM 51.1 °F 41.0 °F 68% 30.20 in 10.0 mi ENE 8.1 mph - N/A   Overcast
10:52 AM 51.1 °F 43.0 °F 74% 30.20 in 10.0 mi East 8.1 mph - 0.00 in   Mostly Cloudy
11:41 AM 53.1 °F 42.1 °F 66% 30.19 in 10.0 mi Variable 6.9 mph - N/A   Overcast
11:49 AM 53.6 °F 42.8 °F 67% 30.19 in 10.0 mi ESE 5.8 mph - N/A   Overcast
11:52 AM 53.1 °F 42.1 °F 66% 30.20 in 10.0 mi East 4.6 mph - N/A   Overcast
12:52 PM 54.0 °F 42.1 °F 64% 30.17 in 10.0 mi ENE 10.4 mph - N/A   Overcast
1:52 PM 53.1 °F 42.1 °F 66% 30.17 in 10.0 mi East 5.8 mph - N/A   Overcast
2:52 PM 54.0 °F 43.0 °F 66% 30.16 in 10.0 mi Variable 4.6 mph - N/A   Overcast
3:02 PM 54.0 °F 43.0 °F 66% 30.15 in 10.0 mi Variable 5.8 mph - N/A   Overcast
3:52 PM 54.0 °F 43.0 °F 66% 30.13 in 10.0 mi Variable 4.6 mph - N/A   Overcast
4:44 PM 53.1 °F 43.0 °F 69% 30.13 in 10.0 mi East 5.8 mph - N/A   Overcast
4:52 PM 53.1 °F 43.0 °F 69% 30.12 in 10.0 mi Variable 4.6 mph - N/A   Overcast
5:52 PM 51.1 °F 45.0 °F 80% 30.10 in 5.0 mi Variable 3.5 mph - 0.00 in Rain Light Rain
6:08 PM 50.0 °F 46.0 °F 86% 30.09 in 2.5 mi Calm Calm - 0.02 in Rain Rain
6:15 PM 50.0 °F 46.9 °F 89% 30.10 in 8.0 mi Calm Calm - 0.02 in Rain Light Rain
6:28 PM 50.0 °F 46.9 °F 89% 30.10 in 10.0 mi NNE 4.6 mph - 0.02 in   Overcast
6:52 PM 50.0 °F 46.9 °F 89% 30.11 in 8.0 mi NE 3.5 mph - 0.02 in Rain Light Rain
7:52 PM 48.9 °F 48.0 °F 97% 30.09 in 4.0 mi Calm Calm - 0.02 in   Overcast
8:14 PM 48.9 °F 48.0 °F 97% 30.08 in 2.5 mi ENE 4.6 mph - 0.02 in Rain Rain
8:27 PM 48.9 °F 48.0 °F 97% 30.09 in 3.0 mi Calm Calm - 0.04 in Rain Light Rain
8:34 PM 48.9 °F 48.0 °F 97% 30.09 in 4.0 mi Calm Calm - 0.04 in Rain Light Rain
8:52 PM 48.9 °F 46.9 °F 93% 30.09 in 10.0 mi ENE 3.5 mph - 0.05 in   Overcast
9:07 PM 48.9 °F 46.9 °F 93% 30.08 in 6.0 mi ENE 3.5 mph - N/A   Overcast
9:15 PM 48.9 °F 48.0 °F 97% 30.07 in 5.0 mi ENE 3.5 mph - N/A   Overcast
9:31 PM 48.9 °F 48.0 °F 97% 30.06 in 4.0 mi ENE 3.5 mph - N/A   Overcast
9:52 PM 48.9 °F 48.0 °F 97% 30.05 in 5.0 mi Calm Calm - N/A   Overcast
10:52 PM 48.9 °F 48.0 °F 97% 30.03 in 4.0 mi Calm Calm - N/A   Overcast
11:34 PM 48.9 °F 48.0 °F 97% 30.01 in 2.5 mi Calm Calm - 0.01 in Rain Light Rain
11:52 PM 48.9 °F 48.0 °F 97% 30.00 in 4.0 mi Calm Calm - 0.01 in Rain Light Rain